Location: Acequia del Cap
(41.7000°N, 0.6167°E)
Time: 00:38:40
(UTC+00:00)

Cosmos 44 Rocket - Pass Details

Date: 07 August 2020
Orbit: 647 x 743 km, 65.1° (Epoch: 22 September)

Event Time Altitude Azimuth Distance (km) Brightness Sun altitude
Rises 00:48:48 0° 330° (NNW) 3,095 7.3 -31.0°
Reaches altitude 10° 00:51:10 10° 335° (NNW) 2,188 6.4 -30.9°
Enters shadow 00:55:09 49° 12° (NNE) 931 4.2 -30.7°
